[[{"header":{"parameterUnit":"m.s-1","parameterCategory":1,"la1":30.2991,"la2":30.254,"lo1":-89.0895,"lo2":-89.0444,"dy":0.0017,"dx":0.0017,"nx":28,"ny":28,"refTime":"2025-09-07T09:00:00:Z","depth":0,"parameterNumber":2,"parameterNumberName":"U-component_of_WINDS"},"data":[0,0,0,0,0,0,0,0,0,0,0,0,0,0,0,0,0,0,0,0,0,0,0,0,0,0,0,0,0,0,0,0,0,0,0,0,0,0,0,0,0,0,0,0,0,0,0,0,0,0,0,0,0,0,0,0,0,0,-5.9343,-5.9345,0,-5.952,-5.9522,-5.9524,-5.9528,-5.9526,-5.9524,-5.9522,-5.9691,-5.9698,-5.9704,0,0,0,0,0,0,0,0,0,0,0,0,0,-5.8996,-5.9002,-5.9343,-5.9345,-5.9348,-5.9519,-5.9522,-5.9524,-5.9529,-5.9526,-5.9523,-5.9521,-5.9689,-5.9697,-5.9705,0,0,0,0,0,0,0,0,0,0,0,0,0,-5.9157,-5.9004,-5.9343,-5.9371,-5.9375,-5.9519,-5.9522,-5.9525,-5.9529,-5.9526,-5.9523,-5.952,-5.9687,-5.9696,-5.9706,-5.983,0,0,-5.9736,-5.974,0,0,0,0,0,0,0,0,-5.9148,-5.9169,-5.9364,-5.9369,-5.9374,-5.9499,-5.9462,-5.9627,-5.953,-5.947,-5.9522,-5.9518,-5.9629,-5.9643,-5.9683,-5.9838,-5.9845,-5.9736,-5.9742,-5.9747,-5.9749,0,0,0,0,0,0,0,-5.9137,-5.9162,-5.9413,-5.9367,-5.9373,-5.937,-5.9389,-5.9493,-5.9565,-5.9475,-5.9476,-5.9497,-5.9631,-5.9674,-5.9687,-5.9848,-5.9736,-5.9745,-5.9751,-5.9755,-6.0108,-6.0112,0,0,0,0,0,0,-5.9122,-5.9153,-5.9407,-5.9418,-5.9251,-5.9379,-5.94,-5.9462,-5.9564,-5.9577,-5.95,-5.9497,-5.9659,-5.9676,-5.9693,-5.9843,-5.9746,-5.9756,-5.9761,-6.0105,-6.0109,-6.0113,0,0,0,0,0,0,-5.9114,-5.9144,-5.94,-5.9286,-5.9318,-5.9388,-5.9457,-5.9467,-5.951,-5.9583,-5.9595,-5.9531,-5.9657,-5.9679,-5.9796,-5.9849,-5.976,-5.9769,-6.0101,-6.0106,-6.0111,-6.0145,0,0,0,0,0,0,-5.9104,-5.9142,-5.9193,-5.9287,-5.9324,-5.9504,-5.9461,-5.9473,-5.9528,-5.9526,-5.9616,-5.9627,-5.9656,-5.9781,-5.9805,-5.9861,-5.9777,-6.0096,-6.0103,-6.0109,-6.014,-6.0151,-6.0161,0,0,0,0,0,-5.9092,-5.9194,-5.9196,-5.9227,-5.9391,-5.9507,-5.9528,-5.9563,-5.9533,-5.9582,-5.9628,-5.9624,-5.9839,-5.9793,-5.982,-5.9879,-6.0093,-6.0101,-6.0109,-6.0135,-6.0149,-6.016,0,0,0,0,0,0,-5.9102,-5.9207,-5.921,-5.9347,-5.9419,-5.9508,-5.9573,-5.9577,-5.9656,-5.965,-5.9685,-5.9705,-5.982,-5.9861,-5.9808,-6.0003,-5.9962,-5.9976,-5.9972,-5.9986,-5.9996,-5.9984,-5.9785,0,0,0,0,0,-5.9121,-5.9211,-5.9296,-5.9408,-5.9445,-5.9502,-5.9554,-5.9575,-5.9648,-5.9678,-5.9732,-5.9801,-5.9883,-5.9937,-6.0017,-6.0145,-6.0162,-6.0198,-6.0209,-6.0217,-6.0229,-6.0295,-6.0311,-6.0139,-6.0139,-6.0139,0,0,-5.916,-5.9228,-5.9283,-5.9412,-5.947,-5.9558,-5.9528,-5.9623,-5.9686,-5.9691,-5.9805,-5.9846,-5.9924,-6.0046,-6.0103,-6.0084,-6.028,-6.0228,-6.0234,-6.0241,-6.0305,-6.0321,-6.0335,-6.0144,-6.0143,-6.0142,0,0,-5.9275,-5.9338,-5.9437,-5.9495,-5.9584,-5.9621,-5.9644,-5.9733,-5.9762,-5.9877,-5.9881,-5.9955,-6.0098,-6.0152,-6.0198,-6.033,-6.0327,-6.0355,-6.041,-6.0474,-6.0487,-6.05,-6.0543,-6.0559,-6.0366,-6.0366,-6.0366,0,-5.9311,-5.9449,-5.9486,-5.9582,-5.9636,-5.9646,-5.9744,-5.9797,-5.9906,-5.9941,-5.9919,-6.0096,-6.015,-6.0283,-6.0314,-6.0353,-6.0376,-6.0345,-6.0483,-6.0496,-6.0507,-6.055,-6.0566,-6.0368,-6.0368,-6.0368,-6.0367,0,-5.9487,-5.9581,-5.9649,-5.9757,-5.9819,-5.9915,-5.9962,-6.002,-6.0033,-6.0071,-6.0184,-6.0249,-6.034,-6.0373,-6.0387,-6.0507,-6.0492,-6.0477,-6.0436,-6.0526,-6.0566,-6.0583,-6.0372,-6.0371,-6.037,-6.037,0,0,-5.9616,-5.9742,-5.9766,-5.9814,-5.991,-5.9981,-6.0074,-6.0167,-6.0214,-6.0287,-6.0363,-6.0482,-6.0467,-6.0519,-6.0538,-6.0595,-6.069,-6.0571,-6.0574,-6.0589,-6.0822,-6.0832,-6.0851,-6.0689,-6.0693,-6.0695,-6.0815,0,-5.9741,-5.9912,-5.9947,-6.0093,-6.0178,-6.0186,-6.0266,-6.0331,-6.0368,-6.0441,-6.0479,-6.0562,-6.0538,-6.0569,-6.0625,-6.0667,-6.0737,-6.0659,-6.0756,-6.0759,-6.0736,-6.0873,-6.0885,-6.0995,-6.0831,-6.0834,-6.0835,0,-5.991,-5.999,-6.0146,-6.0228,-6.0264,-6.0337,-6.0422,-6.0494,-6.0565,-6.0587,-6.0644,-6.0656,-6.0747,-6.0702,-6.0826,-6.0772,-6.0813,-6.0839,-6.0844,-6.0853,-6.0802,-6.0884,-6.1031,-6.1047,-6.0861,-6.0859,-6.0857,0,-5.9986,-6.0132,-6.0243,-6.0283,-6.0383,-6.0432,-6.0475,-6.0544,-6.0596,-6.0668,-6.0702,-6.0783,-6.0827,-6.0887,-6.0918,-6.0883,-6.1038,-6.0997,-6.1055,-6.1054,-6.1088,-6.1085,-6.1242,-6.1116,-6.1116,-6.1116,-6.1115,0,-6.0122,-6.0216,-6.0278,-6.0347,-6.045,-6.0486,-6.0586,-6.0627,-6.0687,-6.076,-6.077,-6.0837,-6.0875,-6.0945,-6.0969,-6.1066,-6.1086,-6.1103,-6.1108,-6.1102,-6.1099,-6.1128,-6.1121,-6.112,-6.1119,-6.1118,-6.1118,0,-6.0225,-6.0271,-6.0392,-6.0476,-6.0499,-6.0571,-6.064,-6.0703,-6.0738,-6.0829,-6.0852,-6.0906,-6.099,-6.1027,-6.1129,-6.1144,-6.1254,-6.1254,-6.1231,-6.1233,-6.1288,-6.1281,-6.1468,-6.1493,-6.1352,-6.1354,-6.1355,0,-6.0308,-6.0381,-6.0472,-6.0523,-6.0568,-6.0649,-6.0703,-6.0738,-6.0793,-6.0877,-6.0929,-6.1013,-6.1083,-6.1214,-6.1259,-6.1336,-6.1337,-6.1397,-6.1348,-6.1338,-6.1335,-6.133,-6.1335,-6.1405,-6.1407,-6.1408,-6.1409,0,-6.0449,-6.0468,-6.0547,-6.0633,-6.0697,-6.0765,-6.0832,-6.0871,-6.0916,-6.0976,-6.1063,-6.1116,-6.122,-6.1302,-6.1381,-6.1419,-6.142,-6.1424,-6.1441,-6.1434,-6.1417,-6.1424,-6.1253,-6.1419,-6.1418,-6.1417,-6.1417,-6.1416,-6.0544,-6.0607,-6.0681,-6.0767,-6.0821,-6.0882,-6.0945,-6.0988,-6.1063,-6.1153,-6.1168,-6.1259,-6.1322,-6.1429,-6.147,-6.1538,-6.1523,-6.1549,-6.1555,-6.156,-6.1562,-6.1407,-6.1553,-6.1552,-6.1552,-6.1552,-6.1552,0,-6.0684,-6.0731,-6.081,-6.0904,-6.097,-6.0968,-6.104,-6.1094,-6.1176,-6.1237,-6.1305,-6.1401,-6.148,-6.153,-6.1608,-6.1652,-6.1654,-6.1671,-6.1667,-6.1675,-6.1573,-6.1549,-6.1668,-6.1668,-6.1668,-6.1668,-6.1668,-6.1668,-6.0765,-6.0872,-6.0898,-6.1029,-6.1074,-6.1167,-6.1207,-6.1262,-6.1311,-6.142,-6.1486,-6.1519,-6.1574,-6.1655,-6.1725,-6.1737,-6.1764,-6.1781,-6.1792,-6.1695,-6.1683,-6.1672,-6.165,-6.1788,-6.1788,-6.1889,-6.189,-6.1891]},{"header":{"parameterUnit":"m.s-1","parameterCategory":1,"la1":30.2991,"la2":30.254,"lo1":-89.0895,"lo2":-89.0444,"dy":0.0017,"dx":0.0017,"nx":28,"ny":28,"refTime":"2025-09-07T09:00:00:Z","depth":0,"parameterNumber":3,"parameterNumberName":"V-component_of_WINDS"},"data":[0,0,0,0,0,0,0,0,0,0,0,0,0,0,0,0,0,0,0,0,0,0,0,0,0,0,0,0,0,0,0,0,0,0,0,0,0,0,0,0,0,0,0,0,0,0,0,0,0,0,0,0,0,0,0,0,0,0,-5.5844,-5.5844,0,-5.5918,-5.5919,-5.592,-5.5844,-5.5841,-5.5838,-5.5835,-5.5904,-5.5909,-5.5913,0,0,0,0,0,0,0,0,0,0,0,0,0,-5.5629,-5.5633,-5.5843,-5.5844,-5.5845,-5.5918,-5.5919,-5.592,-5.5844,-5.584,-5.5837,-5.5833,-5.5903,-5.5908,-5.5914,0,0,0,0,0,0,0,0,0,0,0,0,0,-5.5714,-5.5634,-5.5843,-5.5816,-5.5815,-5.5918,-5.5919,-5.592,-5.5845,-5.584,-5.5836,-5.5832,-5.5901,-5.5908,-5.5915,-5.6045,0,0,-5.5936,-5.5939,0,0,0,0,0,0,0,0,-5.571,-5.5722,-5.5819,-5.5818,-5.5817,-5.5867,-5.5868,-5.5962,-5.5846,-5.5833,-5.5835,-5.583,-5.5895,-5.5902,-5.5926,-5.6049,-5.6052,-5.5936,-5.594,-5.5943,-5.5945,0,0,0,0,0,0,0,-5.5704,-5.5719,-5.5873,-5.5821,-5.5819,-5.5798,-5.5806,-5.5886,-5.5888,-5.5834,-5.5829,-5.5839,-5.5893,-5.5919,-5.5927,-5.6053,-5.5936,-5.5942,-5.5946,-5.5949,-5.6285,-5.6289,0,0,0,0,0,0,-5.5702,-5.5714,-5.587,-5.5875,-5.5751,-5.5806,-5.5814,-5.5855,-5.5887,-5.5887,-5.5843,-5.5835,-5.591,-5.5919,-5.5929,-5.6082,-5.5943,-5.595,-5.5954,-5.628,-5.6286,-5.6291,0,0,0,0,0,0,-5.5697,-5.5716,-5.5867,-5.5793,-5.5811,-5.5814,-5.5861,-5.5859,-5.5885,-5.5893,-5.5893,-5.5869,-5.5906,-5.5919,-5.6017,-5.6084,-5.5953,-5.5959,-5.6275,-5.6282,-5.6289,-5.6392,0,0,0,0,0,0,-5.5692,-5.5715,-5.5767,-5.5795,-5.5815,-5.5957,-5.5865,-5.5864,-5.5898,-5.5888,-5.5918,-5.5918,-5.5904,-5.6007,-5.6024,-5.6091,-5.5965,-5.6268,-5.6278,-5.6286,-5.6383,-5.6402,-5.6418,0,0,0,0,0,-5.5684,-5.5792,-5.577,-5.5789,-5.588,-5.5961,-5.5972,-5.5955,-5.5903,-5.5954,-5.5959,-5.5917,-5.6075,-5.6018,-5.6036,-5.6106,-5.6264,-5.6275,-5.6286,-5.6375,-5.6398,-5.6418,0,0,0,0,0,0,-5.5768,-5.5795,-5.5771,-5.5891,-5.5925,-5.5948,-5.6011,-5.5981,-5.6027,-5.6017,-5.5992,-5.5999,-5.6103,-5.6114,-5.6051,-5.6234,-5.6161,-5.6175,-5.6222,-5.6244,-5.6262,-5.6255,-5.597,0,0,0,0,0,-5.5802,-5.5867,-5.5886,-5.599,-5.6009,-5.6007,-5.6042,-5.6026,-5.6059,-5.6072,-5.6084,-5.6116,-5.6172,-5.6209,-5.6261,-5.6385,-5.6388,-5.6442,-5.646,-5.6474,-5.6487,-5.6551,-5.6574,-5.6327,-5.6326,-5.6326,0,0,-5.5869,-5.5892,-5.5934,-5.6008,-5.6032,-5.6098,-5.6019,-5.6093,-5.6141,-5.6082,-5.6175,-5.6186,-5.6219,-5.633,-5.6379,-5.6343,-5.6556,-5.6488,-5.65,-5.6504,-5.6564,-5.6588,-5.6608,-5.6334,-5.6333,-5.6331,0,0,-5.6026,-5.6052,-5.614,-5.6167,-5.6205,-5.6204,-5.6225,-5.6254,-5.6259,-5.6353,-5.631,-5.6366,-5.6464,-5.6488,-5.6514,-5.6682,-5.6644,-5.67,-5.6792,-5.6854,-5.6874,-5.6891,-5.6948,-5.6969,-5.6712,-5.6713,-5.6713,0,-5.6105,-5.6205,-5.6189,-5.6266,-5.6299,-5.6251,-5.634,-5.6365,-5.6418,-5.644,-5.6399,-5.6521,-5.654,-5.6655,-5.6696,-5.672,-5.6741,-5.6695,-5.6873,-5.689,-5.6905,-5.696,-5.6982,-5.6719,-5.6718,-5.6718,-5.6717,0,-5.6299,-5.6369,-5.6436,-5.6491,-5.6531,-5.6613,-5.6607,-5.6649,-5.6631,-5.6633,-5.6728,-5.675,-5.6805,-5.6832,-5.6814,-5.6944,-5.692,-5.6877,-5.6802,-5.6936,-5.6986,-5.7007,-5.6728,-5.6726,-5.6724,-5.6722,0,0,-5.6508,-5.6555,-5.6579,-5.6603,-5.6642,-5.6695,-5.6774,-5.6831,-5.6866,-5.6905,-5.6969,-5.7053,-5.7013,-5.7043,-5.7027,-5.7082,-5.7211,-5.7032,-5.7032,-5.7062,-5.7354,-5.7384,-5.7409,-5.7188,-5.7192,-5.7195,-5.735,0,-5.6665,-5.6805,-5.6793,-5.6925,-5.6988,-5.6945,-5.7014,-5.7044,-5.7049,-5.7101,-5.7105,-5.7165,-5.7109,-5.7126,-5.7179,-5.7184,-5.7269,-5.7173,-5.7244,-5.7247,-5.7234,-5.7435,-5.7468,-5.7613,-5.737,-5.7373,-5.7376,0,-5.6865,-5.6913,-5.7052,-5.7081,-5.7107,-5.717,-5.722,-5.7272,-5.7305,-5.7304,-5.7337,-5.7312,-5.7389,-5.7316,-5.7421,-5.7356,-5.7384,-5.7391,-5.7397,-5.74,-5.7317,-5.7441,-5.7659,-5.768,-5.7407,-5.7405,-5.7402,0,-5.7001,-5.71,-5.7195,-5.7217,-5.7255,-5.7299,-5.7317,-5.7346,-5.738,-5.7423,-5.7445,-5.7496,-5.7524,-5.7563,-5.7551,-5.7499,-5.7658,-5.7584,-5.7657,-5.7657,-5.7689,-5.7687,-5.7912,-5.7713,-5.7713,-5.7712,-5.7712,0,-5.7175,-5.7261,-5.7257,-5.7315,-5.7409,-5.7395,-5.7487,-5.7499,-5.7525,-5.7583,-5.7549,-5.7603,-5.7586,-5.7639,-5.7631,-5.7717,-5.7731,-5.773,-5.7726,-5.7731,-5.7731,-5.7747,-5.7736,-5.7718,-5.7717,-5.7716,-5.7715,0,-5.7341,-5.7342,-5.7443,-5.7472,-5.7481,-5.7549,-5.7571,-5.7625,-5.7628,-5.7701,-5.7718,-5.7721,-5.7782,-5.7775,-5.7842,-5.7837,-5.7943,-5.7929,-5.7933,-5.7928,-5.8001,-5.7993,-5.8241,-5.8272,-5.8056,-5.8058,-5.806,0,-5.745,-5.7516,-5.7552,-5.759,-5.7611,-5.7672,-5.7707,-5.7695,-5.7733,-5.7776,-5.7824,-5.7882,-5.7928,-5.8027,-5.8033,-5.8084,-5.8069,-5.8152,-5.8076,-5.8079,-5.8066,-5.8062,-5.8067,-5.8166,-5.8169,-5.8171,-5.8172,0,-5.7644,-5.7641,-5.7696,-5.7751,-5.7795,-5.7836,-5.7874,-5.7906,-5.7898,-5.7942,-5.8005,-5.8041,-5.8111,-5.8168,-5.8216,-5.8231,-5.8199,-5.8197,-5.8216,-5.8221,-5.8219,-5.8218,-5.7971,-5.8191,-5.8189,-5.8187,-5.8186,-5.8186,-5.7783,-5.7838,-5.7873,-5.7934,-5.7962,-5.7998,-5.805,-5.806,-5.8114,-5.8171,-5.816,-5.8231,-5.8261,-5.8323,-5.8343,-5.8396,-5.8365,-5.8393,-5.84,-5.8406,-5.8413,-5.8214,-5.8405,-5.8404,-5.8404,-5.8404,-5.8403,0,-5.7972,-5.7992,-5.8049,-5.8104,-5.8152,-5.8123,-5.8163,-5.8204,-5.8267,-5.8299,-5.8346,-5.8417,-5.8473,-5.8485,-5.8537,-5.8577,-5.8564,-5.8591,-5.8586,-5.8589,-5.8439,-5.8417,-5.8601,-5.8601,-5.8601,-5.8601,-5.8601,-5.8601,-5.8075,-5.8167,-5.817,-5.8274,-5.8294,-5.8364,-5.839,-5.8422,-5.8448,-5.853,-5.8577,-5.8586,-5.8609,-5.8663,-5.8712,-5.8714,-5.8733,-5.8766,-5.8761,-5.862,-5.86,-5.8581,-5.8559,-5.8771,-5.8771,-5.8907,-5.8908,-5.8909]}]]